Columbia County, Pennsylvania, United States
Lat: 41.04N, Lon: 76.43W
Wx Zone: PAZ053
Local Info
Past Weather Observations for Tuesday, May 24, 2016

NOTE: This archive is for the closest National Weather Service station to Columbia County. Information may differ from the station used for current weather conditions.

Click here for Long-term Archive

Time Weather Temperature Dewpoint Humidity Pressure Winds Precip Visibility
23:53
Clear
52°F / 11°C 48°F / 9°C 88% 30.06 in
(1018 mb)
Calm - 10SM
22:53
Clear
55°F / 13°C 52°F / 11°C 88% 30.04 in
(1017 mb)
Calm - 10SM
21:53
Clear
57°F / 14°C 52°F / 11°C 82% 30.04 in
(1017 mb)
Calm - 10SM
20:53
Clear
61°F / 16°C 52°F / 11°C 72% 30.01 in
(1016 mb)
Calm - 10SM
19:53
Clear
64°F / 18°C 54°F / 12°C 68% 29.98 in
(1015 mb)
Calm - 10SM
18:53
Clear
75°F / 24°C 45°F / 7°C 34% 29.95 in
(1014 mb)
NNW 4.6 mph
(NNW 7 kph)
- 10SM
17:53
Clear
82°F / 28°C 45°F / 7°C 26% 29.95 in
(1014 mb)
NW 6.9 mph
(NW 11 kph)
- 10SM
16:53
Partly Cloudy
81°F / 27°C 46°F / 8°C 30% 29.95 in
(1014 mb)
NW 3.5 mph
(NW 6 kph)
- 10SM
15:53
Partly Cloudy
82°F / 28°C 45°F / 7°C 26% 29.95 in
(1014 mb)
WNW 11.5 mph
(WNW 19 kph)
- 10SM
14:53
Mostly Cloudy
84°F / 29°C 45°F / 7°C 25% 29.92 in
(1013 mb)
Variable 5.8 mph
(Variable 9 kph)
- 10SM
13:53
Mostly Cloudy
81°F / 27°C 45°F / 7°C 28% 29.95 in
(1014 mb)
NW 8.1 mph
(NW 13 kph)
- 10SM
12:53
Partly Cloudy
81°F / 27°C 46°F / 8°C 30% 29.95 in
(1014 mb)
Variable 5.8 mph
(Variable 9 kph)
- 10SM
11:53
Partly Cloudy
81°F / 27°C 46°F / 8°C 30% 29.98 in
(1015 mb)
Variable 3.5 mph
(Variable 6 kph)
- 10SM
10:53
Clear
79°F / 26°C 48°F / 9°C 34% 29.98 in
(1015 mb)
Calm - 10SM
09:53
Clear
73°F / 23°C 52°F / 11°C 47% 29.98 in
(1015 mb)
SE 4.6 mph
(SE 7 kph)
- 10SM
08:53
Clear
70°F / 21°C 54°F / 12°C 57% 30.01 in
(1016 mb)
Calm - 10SM
07:53
Clear
63°F / 17°C 55°F / 13°C 77% 30.01 in
(1016 mb)
Calm - 10SM
06:53
Clear
55°F / 13°C 54°F / 12°C 94% 29.98 in
(1015 mb)
Calm - 9SM
05:53
Clear
Fog And Mist
52°F / 11°C 50°F / 10°C 94% 29.98 in
(1015 mb)
Calm - 5SM
05:17
Clear
Fog And Mist
48°F / 9°C 48°F / 9°C 100% 29.98 in
(1015 mb)
Calm - 3SM
05:06
Clear
Fog And Mist
48°F / 9°C 48°F / 9°C 100% 29.98 in
(1015 mb)
Calm - 1 3/4SM
04:53
Clear
Fog And Mist
48°F / 9°C 48°F / 9°C 100% 29.95 in
(1014 mb)
Calm - 4SM
03:53
Clear
Fog And Mist
50°F / 10°C 48°F / 9°C 94% 29.95 in
(1014 mb)
Calm - 6SM
02:53
Mostly Cloudy
52°F / 11°C 48°F / 9°C 88% 29.95 in
(1014 mb)
Calm - 8SM
01:53
Clear
52°F / 11°C 50°F / 10°C 94% 29.95 in
(1014 mb)
Calm - 8SM
00:53
Clear
52°F / 11°C 48°F / 9°C 88% 29.95 in
(1014 mb)
N 4.6 mph
(N 7 kph)
- 7SM
Time Weather Temperature Dewpoint Humidity Pressure Winds Precip Visibility


Weather for websites

WeatherForYou.com, LLC is not responsible for any damages or problems caused by this service. Current weather conditions are obtained from the closest station including government and personal stations which may have varying degrees of accuracy. Weather forecasts are derived from the NOAA NDFD. Like all things, this site belongs to Jesus Christ... He just trusts us to maintain it. If you have any questions or comments email webmaster@weatherforyou.com

Copyright © 2016, WeatherForYou.com LLC. All rights reserved.